Blacksburg, VA

10:15 AM EDT on May 29, 2017 (GMT -0400)
Virginia Tech

Weather History for KBCB - January, 2012

Change the Weather History Date:

Sunday, January 15, 2012

  Actual Average Record
Temperature  
Mean Temperature 26 °F 31 °F  
Max Temperature 33 °F 41 °F 63 °F (2007)
Min Temperature 18 °F 21 °F 2 °F (1969)
Degree Days  
Heating Degree Days 39 34  
Month to date heating degree days 473 510  
Since 1 July heating degree days 2291 2657  
Cooling Degree Days 0 0  
Month to date cooling degree days 0 0  
Year to date cooling degree days 0 0  
Moisture  
Dew Point 23 °F    
Average Humidity 78    
Maximum Humidity 100    
Minimum Humidity 56    
Precipitation  
Precipitation T in 0.10 in 2.03 in (2013)
Month to date precipitation 1.07 1.50  
Year to date precipitation 1.07 1.50  
Snow  
Snow T in - - ()
Month to date snowfall 1.7  
Since 1 July snowfall 1.7  
Snow Depth T in    
Sea Level Pressure  
Sea Level Pressure 30.30 in    
Wind  
Wind Speed 5 mph (WNW)    
Max Wind Speed 12 mph    
Max Gust Speed 17 mph    
Visibility 9 miles    
Events Snow    
T = Trace of Precipitation, MM = Missing Value Source: NWS Daily Summary

Daily Weather History Graph

Daily Weather History Graph

Search for Another Location

Airport or City:

Trip Planner

Search our weather history database for the weather conditions in past years. The results will help you decide how hot, cold, wet, or windy it might be!

Date:

Astronomy

Jan. 15, 2012 Rise Set
Actual Time 7:34 AM EST 5:27 PM EST
Civil Twilight 7:06 AM EST 5:56 PM EST
Nautical Twilight 6:34 AM EST 6:28 PM EST
Astronomical Twilight 6:02 AM EST 6:59 PM EST
Moon No Moon Rise 11:02 AM EST (1/15)
Length of Visible Light 10h 49m
Length of Day
9h 52m
Waning Gibbous, 58% of the Moon is Illuminated
Jan 15
Waning Gibbous
Jan 16
Last Quarter
Jan 23
New
Jan 30
First Quarter
Feb 7
Full

Hourly Weather History & Observations

Time (EST) Temp. Windchill Dew Point Humidity Pressure Visibility Wind Dir Wind Speed Gust Speed Precip Events Conditions
12:35 AM 26.6 °F - 26.6 °F 100% 30.07 in 5.0 mi Calm Calm - N/A Snow Light Snow
12:55 AM 26.6 °F - 26.6 °F 100% 30.07 in 7.0 mi Calm Calm - N/A   Overcast
1:15 AM 26.6 °F - 26.6 °F 100% 30.07 in 7.0 mi Calm Calm - N/A   Overcast
1:35 AM 26.6 °F - 26.6 °F 100% 30.08 in 7.0 mi Calm Calm - N/A   Overcast
1:55 AM 28.4 °F - 28.4 °F 100% 30.08 in 7.0 mi Calm Calm - N/A   Overcast
2:15 AM 26.6 °F 22.6 °F 26.6 °F 100% 30.09 in 10.0 mi West 3.5 mph - N/A   Overcast
2:35 AM 28.4 °F 23.3 °F 28.4 °F 100% 30.09 in 10.0 mi West 4.6 mph - N/A   Overcast
2:55 AM 28.4 °F 24.6 °F 28.4 °F 100% 30.10 in 10.0 mi West 3.5 mph - N/A   Overcast
3:15 AM 28.4 °F - 28.4 °F 100% 30.11 in 7.0 mi Calm Calm - N/A Snow Light Snow
3:35 AM 28.4 °F 24.6 °F 28.4 °F 100% 30.12 in 10.0 mi WSW 3.5 mph - N/A Snow Light Snow
3:55 AM 28.4 °F 22.2 °F 28.4 °F 100% 30.12 in 7.0 mi West 5.8 mph - N/A Snow Light Snow
4:35 AM 28.4 °F 21.2 °F 26.6 °F 93% 30.14 in 10.0 mi WNW 6.9 mph - N/A Snow Light Snow
5:15 AM 28.4 °F 22.2 °F 26.6 °F 93% 30.15 in 10.0 mi NW 5.8 mph - N/A   Mostly Cloudy
5:35 AM 28.4 °F 21.2 °F 26.6 °F 93% 30.17 in 10.0 mi WNW 6.9 mph - N/A   Mostly Cloudy
5:55 AM 28.4 °F 23.3 °F 26.6 °F 93% 30.18 in 10.0 mi WNW 4.6 mph - N/A   Overcast
6:15 AM 28.4 °F 20.4 °F 24.8 °F 86% 30.20 in 10.0 mi WNW 8.1 mph - N/A   Overcast
6:35 AM 28.4 °F 19.1 °F 24.8 °F 86% 30.21 in 10.0 mi WNW 10.4 mph 16.1 mph N/A Snow Light Snow
6:55 AM 28.4 °F 21.2 °F 24.8 °F 86% 30.22 in 10.0 mi WNW 6.9 mph - N/A Snow Light Snow
7:15 AM 28.4 °F 22.2 °F 24.8 °F 86% 30.24 in 5.0 mi WNW 5.8 mph - N/A Snow Light Snow
7:35 AM 28.4 °F 21.2 °F 24.8 °F 86% 30.25 in 7.0 mi WNW 6.9 mph - N/A Snow Light Snow
7:55 AM 28.4 °F 19.7 °F 24.8 °F 86% 30.26 in 10.0 mi WNW 9.2 mph - N/A   Overcast
8:15 AM 28.4 °F 20.4 °F 24.8 °F 86% 30.28 in 10.0 mi WNW 8.1 mph - N/A   Overcast
8:35 AM 28.4 °F 24.6 °F 24.8 °F 86% 30.29 in 7.0 mi West 3.5 mph - N/A Snow Light Snow
8:55 AM 28.4 °F 24.6 °F 24.8 °F 86% 30.30 in 5.0 mi West 3.5 mph - N/A Snow Light Snow
9:15 AM 28.4 °F 23.3 °F 24.8 °F 86% 30.31 in 10.0 mi West 4.6 mph - N/A Snow Light Snow
9:35 AM 28.4 °F 20.4 °F 23.0 °F 80% 30.32 in 10.0 mi WNW 8.1 mph - N/A Snow Light Snow
9:55 AM 28.4 °F 19.1 °F 23.0 °F 80% 30.33 in 10.0 mi NW 10.4 mph - N/A   Overcast
10:15 AM 28.4 °F 18.0 °F 21.2 °F 74% 30.34 in 10.0 mi WNW 12.7 mph 18.4 mph N/A Snow Light Snow
10:35 AM 28.4 °F 19.7 °F 23.0 °F 80% 30.35 in 7.0 mi WNW 9.2 mph 17.3 mph N/A Snow Light Snow
10:55 AM 28.4 °F 19.7 °F 21.2 °F 74% 30.36 in 10.0 mi NW 9.2 mph 16.1 mph N/A Snow Light Snow
11:15 AM 28.4 °F 19.1 °F 21.2 °F 74% 30.36 in 10.0 mi WNW 10.4 mph - N/A Snow Light Snow
11:35 AM 28.4 °F 19.7 °F 21.2 °F 74% 30.37 in 10.0 mi WNW 9.2 mph 16.1 mph N/A   Overcast
11:55 AM 30.2 °F 21.9 °F 21.2 °F 69% 30.37 in 10.0 mi NW 9.2 mph - N/A   Mostly Cloudy
12:15 PM 30.2 °F 21.3 °F 23.0 °F 75% 30.37 in 10.0 mi NNW 10.4 mph - N/A   Mostly Cloudy
12:35 PM 30.2 °F 21.9 °F 23.0 °F 75% 30.37 in 10.0 mi NW 9.2 mph - N/A   Mostly Cloudy
12:55 PM 30.2 °F 20.8 °F 21.2 °F 69% 30.37 in 10.0 mi WNW 11.5 mph 17.3 mph N/A   Mostly Cloudy
1:15 PM 33.8 °F 27.7 °F 23.0 °F 65% 30.36 in 10.0 mi WNW 6.9 mph - N/A   Mostly Cloudy
1:35 PM 33.8 °F 24.8 °F 23.0 °F 65% 30.37 in 10.0 mi NW 12.7 mph - N/A   Scattered Clouds
1:55 PM 33.8 °F 26.4 °F 21.2 °F 60% 30.36 in 10.0 mi NW 9.2 mph 16.1 mph N/A   Scattered Clouds
2:15 PM 33.8 °F 27.0 °F 21.2 °F 60% 30.37 in 10.0 mi NW 8.1 mph - N/A   Clear
2:35 PM 33.8 °F 27.7 °F 21.2 °F 60% 30.37 in 10.0 mi NW 6.9 mph - N/A   Clear
2:55 PM 35.6 °F 28.6 °F 21.2 °F 56% 30.37 in 10.0 mi West 9.2 mph - N/A   Scattered Clouds
3:15 PM 35.6 °F 31.7 °F 21.2 °F 56% 30.38 in 10.0 mi West 4.6 mph - N/A   Scattered Clouds
3:35 PM 35.6 °F 29.9 °F 19.4 °F 52% 30.38 in 10.0 mi WNW 6.9 mph - N/A   Clear
3:55 PM 33.8 °F 27.7 °F 19.4 °F 56% 30.38 in 10.0 mi WNW 6.9 mph - N/A   Clear
4:15 PM 33.8 °F 28.6 °F 19.4 °F 56% 30.39 in 10.0 mi WNW 5.8 mph - N/A   Clear
4:35 PM 33.8 °F 28.6 °F 19.4 °F 56% 30.40 in 10.0 mi WNW 5.8 mph - N/A   Clear
4:55 PM 33.8 °F 28.6 °F 19.4 °F 56% 30.41 in 10.0 mi WNW 5.8 mph - N/A   Clear
5:15 PM 32.0 °F - 19.4 °F 60% 30.41 in 10.0 mi Calm Calm - N/A   Clear
5:35 PM 30.2 °F - 19.4 °F 64% 30.41 in 10.0 mi Calm Calm - N/A   Clear
5:55 PM 28.4 °F - 21.2 °F 74% 30.41 in 10.0 mi Calm Calm - N/A   Clear
6:15 PM 28.4 °F - 21.2 °F 74% 30.43 in 10.0 mi Calm Calm - N/A   Clear
6:35 PM 28.4 °F - 21.2 °F 74% 30.44 in 10.0 mi Calm Calm - N/A   Clear
6:55 PM 26.6 °F - 21.2 °F 80% 30.43 in 10.0 mi Calm Calm - N/A   Clear
7:15 PM 26.6 °F - 21.2 °F 80% 30.43 in 10.0 mi Calm Calm - N/A   Clear
7:35 PM 24.8 °F - 21.2 °F 86% 30.43 in 10.0 mi Calm Calm - N/A   Clear
7:55 PM 24.8 °F - 21.2 °F 86% 30.44 in 10.0 mi Calm Calm - N/A   Clear
8:15 PM 24.8 °F - 21.2 °F 86% 30.44 in 10.0 mi Calm Calm - N/A   Clear
8:35 PM 23.0 °F - 19.4 °F 86% 30.44 in 10.0 mi Calm Calm - N/A   Clear
8:55 PM 23.0 °F - 21.2 °F 93% 30.43 in 10.0 mi Calm Calm - N/A   Clear
9:15 PM 23.0 °F - 21.2 °F 93% 30.44 in 10.0 mi Calm Calm - N/A   Clear
9:35 PM 23.0 °F - 19.4 °F 86% 30.46 in 10.0 mi Calm Calm - N/A   Clear
9:55 PM 21.2 °F - 21.2 °F 100% 30.46 in 10.0 mi Calm Calm - N/A   Clear
10:15 PM 23.0 °F - 21.2 °F 93% 30.46 in 10.0 mi Calm Calm - N/A   Clear
10:35 PM 21.2 °F - 19.4 °F 93% 30.47 in 10.0 mi Calm Calm - N/A   Clear
10:55 PM 21.2 °F - 21.2 °F 100% 30.46 in 10.0 mi Calm Calm - N/A   Clear
11:15 PM 21.2 °F - 19.4 °F 93% 30.46 in 10.0 mi Calm Calm - N/A   Clear
11:35 PM 21.2 °F - 19.4 °F 93% 30.46 in 10.0 mi Calm Calm - N/A   Clear
11:55 PM 19.4 °F - 19.4 °F 100% 30.46 in 10.0 mi Calm Calm - N/A   Clear